Regional Weather Roundup
Issued by NWS

Home | Current Version | Previous Version | Text Only | Print | Product List | Glossary On
Versions: 1 2 3 4 5 6 7 8 9 10 11 12 13 14 15 16 17 18 19 20 21 22 23 24 25 26 27 28 29 30 31 32 33 34 35 36 37 38 39 40 41 42 43 44 45 46 47 48 49 50
000
ASUS42 KKEY 161710
RWRKEY

FLORIDA REGIONAL WEATHER ROUNDUP FOR THE FLORIDA KEYS
NATIONAL WEATHER SERVICE KEY WEST FLORIDA
100 PM EDT WED AUG 16 2017

...SOUTH FLORIDA AND THE KEYS...

CITY           SKY/WX    TMP DP  RH WIND       PRES   REMARKS
FORT MYERS     PTSUNNY   90  77  65 W8        30.08F HX 103
SW REGIONAL AP PTSUNNY   90  75  61 CALM      30.08F HX 100
NAPLES         PTSUNNY   89  77  67 NW6       30.08F HX 101
MIAMI          CLOUDY    86  73  65 VRB6G17   30.10S THUNDER HX  93
WEST KENDALL   CLOUDY    90  75  61 MISG      30.09F THUNDER HX 100
HOMESTEAD      MOSUNNY   92  81  70 E10       30.08  HX 111
MARATHON       SUNNY     93  79  63 E5        30.08F HX 110
BOCA CHICA NAS MOSUNNY   90  81  74 SE8       30.08F HX 109
KEY WEST INTL  SUNNY     90  77  65 E9        30.08F HX 103

...INTERNATIONAL WEATHER...

CITY           SKY/WX    TMP DP  RH WIND       PRES   REMARKS
NASSAU BAHAMAS PTSUNNY   93  77  59 SE8       30.11S HX 107
CANCUN MEXICO  PTSUNNY   88  77  70 E12       30.03F HX 100
COZUMEL MEXICO PTSUNNY   88  79  74 E15       30.01S HX 102

ADJACENT COASTAL WATERS...

STATION/POSITION TIME  SKY/WX   TEMP    WIND        PRES    WAVE
                                AIR SEA DIR/SP/G            HT/PER
                 (UTC)          (F)     (DEG/KT/KT) (MB)    (FT/S)
PULASKI SHOAL LI 1700            87     110/  8/  9 1019.0F
SAND KEY         1650            86     110/  7/  9 1019.2F
LONG KEY         NOT AVBL
MOLASSES REEF    1600            86 87  120/  6/  6 1019.5R
FOWEY ROCKS      1600            86 88  130/  5/  6 1020.1R
Buoy 42097       1630               88                N/A     1/ 6

$$



USA.gov is the U.S. government's official web portal to all federal, state and local government web resources and services.